Find Starlink 34463

NORAD ID: 64598 Int'l Des: 2025-137 Owner: SPXS Country: US Constellation: starlink operational
LEOCIRCULAR

Live Position

Loading 3D Globe...

About Starlink 34463

Description loading...

Upcoming Passes

Passes for default location (London). Set your location on the main map for personalized predictions.

Altitude History

Loading altitude history...

Two-Line Element Set

1 64598U 25137E 26106.46300242 .00005223 00000-0 18833-3 0 9994
2 64598 53.1598 160.0998 0001057 83.0433 277.0688 15.30200321 46513
Epoch: Apr 16, 2026 • Age: 10 hours

Current Status

Altitude 480.8 km
Velocity 7.63 km/s
Sub-Earth Point 52.23°N, 104.87°E
Launch Date Jun 25, 2025
Age 0.8 years
Type internet

Technical Details

Classification Payload
Mass 575.00 kg
Dry Mass 530.00 kg
Total Mass 575.00 kg
Length 0.30 m
Diameter 4.10 m
Span 29.00 m
Shape Box + pan
Manufacturer SPXS
Bus Type Starlink V2MO
Phase Status In Orbit
Owner/State SPXS/US

Most Searched